| time (UTC) | temp C | wind direction | speed KPH | gust KPH | rain 1hr cm | rain 24hr cm | rain mn cm | humidity % | barometer mb |
| 20260510021519 | 25 | 25 | 0.0 | 0.0 | 0.00 | 0.15 | 0.15 | 79 | 1010.9 |
| 20260510020023 | 26 | 33 | 0.0 | 0.0 | 0.00 | 0.15 | 0.15 | 86 | 1010.7 |
| 20260510014519 | 26 | 161 | 0.0 | 0.0 | 0.00 | 0.15 | 0.15 | 85 | 1009.9 |
| 20260510013024 | 27 | 154 | 0.0 | 0.0 | 0.00 | 0.15 | 0.15 | 81 | 1009.2 |
| 20260510011520 | 27 | 171 | 0.0 | 0.0 | 0.00 | 0.15 | 0.15 | 81 | 1008.7 |
| 20260510010022 | 27 | 171 | 0.0 | 0.0 | 0.00 | 0.15 | 0.15 | 78 | 1008.4 |
| 20260510004527 | 27 | 172 | 0.0 | 0.0 | 0.00 | 0.15 | 0.15 | 78 | 1008.2 |
| 20260510003034 | 27 | 265 | 0.0 | 0.0 | 0.00 | 0.15 | 0.15 | 78 | 1008.1 |
| 20260510001530 | 27 | 277 | 0.0 | 0.0 | 0.00 | 0.15 | 0.15 | 81 | 1007.9 |
| 20260510000014 | 28 | 277 | 0.0 | 0.0 | 0.00 | 0.15 | 0.15 | 83 | 1007.7 |
| 20260509234517 | 28 | 277 | 0.0 | 0.0 | 0.00 | 0.15 | 0.15 | 83 | 1007.5 |
| 20260509233017 | 28 | 277 | 0.0 | 0.0 | 0.00 | 0.15 | 0.15 | 81 | 1007.7 |
| 20260509231522 | 28 | 277 | 0.0 | 0.0 | 0.00 | 0.15 | 0.15 | 83 | 1007.6 |
| 20260509230026 | 28 | 277 | 0.0 | 0.0 | 0.00 | 0.15 | 0.15 | 83 | 1007.6 |
| 20260509224531 | 28 | 277 | 0.0 | 0.0 | 0.00 | 0.15 | 0.15 | 81 | 1007.5 |
| 20260509223023 | 30 | 277 | 0.0 | 0.0 | 0.00 | 0.15 | 0.15 | 79 | 1007.5 |
| 20260509221529 | 31 | 277 | 0.0 | 0.0 | 0.00 | 0.15 | 0.15 | 74 | 1007.5 |
| 20260509220033 | 31 | 277 | 0.0 | 0.0 | 0.00 | 0.15 | 0.15 | 75 | 1007.3 |
| 20260509214521 | 31 | 277 | 0.0 | 0.0 | 0.03 | 0.15 | 0.15 | 71 | 1007.3 |
| 20260509213059 | 31 | 277 | 0.0 | 0.0 | 0.03 | 0.15 | 0.15 | 73 | 1007.3 |
| 20260509211517 | 32 | 268 | 0.0 | 0.0 | 0.03 | 0.15 | 0.15 | 68 | 1007.4 |
| 20260509210022 | 32 | 268 | 0.0 | 0.0 | 0.03 | 0.15 | 0.15 | 65 | 1007.5 |
| 20260509204517 | 32 | 268 | 0.0 | 0.0 | 0.00 | 0.13 | 0.13 | 64 | 1007.6 |
| 20260509203019 | 31 | 259 | 0.0 | 0.0 | 0.00 | 0.13 | 0.13 | 67 | 1007.7 |
| 20260509201529 | 31 | 250 | 0.0 | 0.0 | 0.00 | 0.13 | 0.13 | 63 | 1007.9 |
| 20260509200052 | 31 | 245 | 0.0 | 0.0 | 0.00 | 0.13 | 0.13 | 72 | 1008.2 |
| 20260509194536 | 31 | 236 | 0.0 | 0.0 | 0.00 | 0.13 | 0.13 | 65 | 1008.3 |
| 20260509193059 | 31 | 227 | 0.0 | 0.0 | 0.00 | 0.13 | 0.13 | 69 | 1008.4 |
| 20260509191514 | 31 | 224 | 0.0 | 0.0 | 0.00 | 0.13 | 0.13 | 70 | 1008.6 |
| 20260509190013 | 30 | 193 | 0.0 | 0.0 | 0.00 | 0.13 | 0.13 | 69 | 1008.7 |
| 20260509184512 | 30 | 192 | 0.0 | 6.4 | 0.00 | 0.18 | 0.13 | 72 | 1008.9 |
| 20260509183047 | 30 | 190 | 0.0 | 0.0 | 0.00 | 0.18 | 0.13 | 75 | 1009.1 |
| 20260509181550 | 30 | 175 | 0.0 | 0.0 | 0.00 | 0.18 | 0.13 | 78 | 1009.2 |
| 20260509180051 | 29 | 214 | 0.0 | 4.8 | 0.00 | 0.18 | 0.13 | 76 | 1009.6 |
| 20260509174514 | 28 | 188 | 3.2 | 6.4 | 0.00 | 0.23 | 0.13 | 84 | 1009.7 |
| 20260509173036 | 27 | 184 | 1.6 | 9.7 | 0.00 | 0.23 | 0.13 | 86 | 1010.0 |
| 20260509171532 | 27 | 196 | 3.2 | 8.0 | 0.00 | 0.23 | 0.13 | 86 | 1010.0 |
| 20260509170017 | 26 | 360 | 1.6 | 3.2 | 0.00 | 0.23 | 0.13 | 88 | 1010.1 |
| 20260509164516 | 26 | 360 | 0.0 | 4.8 | 0.00 | 0.25 | 0.13 | 89 | 1010.1 |
| 20260509163028 | 26 | 360 | 0.0 | 3.2 | 0.00 | 0.25 | 0.13 | 90 | 1010.1 |
| 20260509161516 | 26 | 360 | 0.0 | 1.6 | 0.00 | 0.25 | 0.13 | 92 | 1010.2 |
| 20260509160020 | 25 | 360 | 0.0 | 1.6 | 0.00 | 0.25 | 0.13 | 95 | 1010.1 |
| 20260509154519 | 25 | 360 | 0.0 | 0.0 | 0.00 | 0.28 | 0.13 | 96 | 1010.2 |
| 20260509153024 | 25 | 360 | 0.0 | 0.0 | 0.00 | 0.28 | 0.13 | 96 | 1010.2 |
| 20260509151512 | 24 | 360 | 0.0 | 0.0 | 0.00 | 0.28 | 0.13 | 96 | 1010.3 |
| 20260509150034 | 24 | 360 | 0.0 | 0.0 | 0.00 | 0.28 | 0.13 | 96 | 1010.1 |
| 20260509144529 | 24 | 360 | 0.0 | 0.0 | 0.00 | 0.28 | 0.13 | 97 | 1010.0 |
| 20260509143028 | 24 | 360 | 0.0 | 0.0 | 0.00 | 0.28 | 0.13 | 97 | 1009.9 |
| 20260509141530 | 24 | 360 | 0.0 | 0.0 | 0.00 | 0.28 | 0.13 | 97 | 1009.8 |
| 20260509140015 | 24 | 360 | 0.0 | 3.2 | 0.00 | 0.28 | 0.13 | 97 | 1009.6 |
| 20260509134517 | 23 | 360 | 0.0 | 3.2 | 0.00 | 0.28 | 0.13 | 97 | 1009.6 |
| 20260509133029 | 23 | 360 | 0.0 | 3.2 | 0.00 | 0.28 | 0.13 | 97 | 1010.2 |
| 20260509131536 | 23 | 360 | 0.0 | 0.0 | 0.00 | 0.28 | 0.13 | 97 | 1010.2 |
| 20260509130016 | 23 | 360 | 0.0 | 1.6 | 0.00 | 0.28 | 0.13 | 97 | 1010.3 |
| 20260509124543 | 22 | 360 | 0.0 | 0.0 | 0.00 | 0.28 | 0.13 | 96 | 1010.2 |
| 20260509123049 | 22 | 360 | 0.0 | 0.0 | 0.00 | 0.28 | 0.13 | 96 | 1010.0 |
| 20260509121516 | 22 | 360 | 0.0 | 0.0 | 0.00 | 0.28 | 0.13 | 96 | 1009.7 |
| 20260509120012 | 22 | 360 | 1.6 | 3.2 | 0.00 | 0.28 | 0.13 | 96 | 1009.5 |
| 20260509114536 | 22 | 360 | 0.0 | 0.0 | 0.00 | 0.28 | 0.13 | 96 | 1009.7 |
| 20260509113036 | 22 | 360 | 0.0 | 0.0 | 0.00 | 0.28 | 0.13 | 96 | 1009.7 |
| 20260509111538 | 22 | 360 | 0.0 | 0.0 | 0.00 | 0.28 | 0.13 | 96 | 1010.2 |
| 20260509110017 | 22 | 360 | 0.0 | 0.0 | 0.00 | 0.28 | 0.13 | 96 | 1009.9 |
| 20260509104522 | 22 | 360 | 0.0 | 0.0 | 0.00 | 0.28 | 0.13 | 96 | 1009.4 |
| 20260509103026 | 22 | 360 | 0.0 | 0.0 | 0.00 | 0.28 | 0.13 | 96 | 1009.4 |
| 20260509101549 | 22 | 360 | 0.0 | 0.0 | 0.00 | 0.28 | 0.13 | 96 | 1009.2 |
| 20260509100025 | 22 | 360 | 0.0 | 0.0 | 0.00 | 0.28 | 0.13 | 96 | 1008.9 |
| 20260509094545 | 22 | 360 | 0.0 | 0.0 | 0.00 | 0.28 | 0.13 | 96 | 1009.0 |
| 20260509093026 | 22 | 360 | 0.0 | 0.0 | 0.00 | 0.28 | 0.13 | 96 | 1009.3 |
| 20260509091530 | 22 | 360 | 0.0 | 0.0 | 0.00 | 0.28 | 0.13 | 96 | 1009.2 |
| 20260509090029 | 22 | 360 | 0.0 | 0.0 | 0.00 | 0.28 | 0.13 | 96 | 1009.0 |
| 20260509084552 | 22 | 360 | 0.0 | 0.0 | 0.00 | 0.28 | 0.13 | 96 | 1009.2 |
| 20260509083032 | 22 | 360 | 0.0 | 0.0 | 0.00 | 0.28 | 0.13 | 96 | 1009.1 |
| 20260509081557 | 22 | 360 | 0.0 | 0.0 | 0.00 | 0.28 | 0.13 | 96 | 1009.1 |
| 20260509080029 | 22 | 360 | 0.0 | 0.0 | 0.00 | 0.28 | 0.13 | 96 | 1009.3 |
| 20260509074527 | 22 | 360 | 0.0 | 0.0 | 0.00 | 0.28 | 0.13 | 96 | 1009.4 |
| 20260509073025 | 22 | 360 | 0.0 | 0.0 | 0.00 | 0.28 | 0.13 | 96 | 1009.8 |
| 20260509071525 | 22 | 360 | 0.0 | 0.0 | 0.10 | 0.28 | 0.13 | 96 | 1009.8 |
| 20260509070028 | 22 | 360 | 0.0 | 0.0 | 0.13 | 0.28 | 0.13 | 96 | 1009.4 |
| 20260509064552 | 22 | 360 | 0.0 | 0.0 | 0.13 | 0.28 | 0.13 | 96 | 1009.5 |
| 20260509063032 | 22 | 360 | 0.0 | 0.0 | 0.13 | 0.28 | 0.13 | 96 | 1009.7 |
| 20260509061530 | 22 | 360 | 0.0 | 0.0 | 0.00 | 0.15 | 0.00 | 96 | 1009.9 |
| 20260509060023 | 22 | 360 | 0.0 | 0.0 | 0.00 | 0.15 | 0.00 | 96 | 1009.9 |
| 20260509054526 | 22 | 360 | 0.0 | 0.0 | 0.00 | 0.15 | 0.00 | 96 | 1009.9 |
| 20260509053048 | 22 | 360 | 0.0 | 0.0 | 0.00 | 0.15 | 0.00 | 96 | 1010.0 |
| 20260509051527 | 22 | 360 | 0.0 | 0.0 | 0.00 | 0.15 | 0.00 | 96 | 1010.0 |
| 20260509050025 | 22 | 360 | 0.0 | 0.0 | 0.00 | 0.15 | 0.00 | 96 | 1010.0 |
| 20260509044546 | 22 | 360 | 0.0 | 0.0 | 0.00 | 0.15 | 0.15 | 96 | 1010.3 |
| 20260509043029 | 22 | 360 | 0.0 | 0.0 | 0.00 | 0.15 | 0.15 | 96 | 1010.3 |
| 20260509041531 | 22 | 360 | 0.0 | 0.0 | 0.00 | 0.15 | 0.15 | 96 | 1009.9 |
| 20260509040026 | 22 | 360 | 0.0 | 0.0 | 0.00 | 0.15 | 0.15 | 95 | 1009.8 |
| 20260509034525 | 22 | 360 | 0.0 | 0.0 | 0.00 | 0.15 | 0.15 | 95 | 1009.8 |
| 20260509033025 | 22 | 360 | 0.0 | 0.0 | 0.00 | 0.15 | 0.15 | 96 | 1009.8 |
| 20260509031530 | 22 | 360 | 0.0 | 0.0 | 0.00 | 0.15 | 0.15 | 96 | 1009.8 |
| 20260509030024 | 22 | 360 | 0.0 | 0.0 | 0.00 | 0.15 | 0.15 | 95 | 1009.7 |
| 20260509024526 | 22 | 360 | 0.0 | 0.0 | 0.00 | 0.15 | 0.15 | 95 | 1009.6 |
| 20260509023029 | 22 | 360 | 0.0 | 0.0 | 0.00 | 0.15 | 0.15 | 95 | 1009.0 |